Tracking 19706 objects as of 17-Jun-2019
HD Live streaming from Space Station
objects crossing your sky now

COSMOS 626

Track COSMOS 626 now!
10-day predictions
COSMOS 626 is classified as:


NORAD ID: 7005
Int'l Code: 1973-108A
Perigee: 920.2 km
Apogee: 983.9 km
Inclination: 65.4 °
Period: 103.9 minutes
Semi major axis: 7323 km
RCS: 3.2756 m2 (large)
Launch date: December 27, 1973
Source: Commonwealth of Independent States (former USSR) (CIS)
Launch site: TYURATAM MISSILE AND SPACE COMPLEX (TTMTR)
aabbcc
Your satellite tracking list
Your tracking list is empty




NASA's NSSDC Master Catalog

Two Line Element Set (TLE):
1  7005U 73108A   19167.47150613 -.00000089 +00000-0 -31722-5 0  9991
2  7005 065.4366 143.9736 0043523 045.6782 314.7837 13.85359726300337
Source of the keplerian elements: AFSPC